This demonstration page uses our WeatherBlox Daily Observations layout. Learn more.

Hourly Observations for May 21, 2019

Temp ( °F °C ) Dew Point ( °F °C ) Humidity (%) Winds ( mph kmh ) Pressure ( in mb ) Visibility ( mi km ) Precip ( " mm )
12:54 am 00:54 Cloudy with Light Rain 47 8.3 44 6.7 90 90 ENE 13 20 29.88 1012 3 4.828032 0.03 0.762
1:00 am 01:00 Cloudy with Light Rain 47 8.3 44 6.7 90 90 ENE 16 26 29.91 1013 3 4.828032 0.001 0.001
1:23 am 01:23 Cloudy with Light Rain 47 8.3 45 7.2 93 93 ENE 13 20 29.91 1013 10 16.09344 0.01 0.254
1:30 am 01:30 Cloudy with Light Rain 47 8.3 44 6.7 90 90 ENE 15 24 29.91 1013 10 16.09344 0.01 0.254
1:40 am 01:40 Cloudy with Light Rain 47 8.3 44 6.7 90 90 ENE 15 24 29.91 1013 5 8.04672 0.01 0.254
1:54 am 01:54 Cloudy with Light Rain 47 8.3 44 6.7 90 90 ENE 15 24 29.85 1011 4 6.437376 0.02 0.508
2:54 am 02:54 Cloudy 47 8.3 45 7.2 93 93 ENE 17 28 29.83 1010 10 16.09344 0.03 0.762
3:54 am 03:54 Cloudy with Mist and Fog 47 8.3 45 7.2 93 93 E 15 24 29.8 1009 4 6.437376 0 0
4:36 am 04:36 Cloudy with Mist and Fog 48 8.9 45 7.2 89 89 E 16 26 29.8 1009 2.5 4.02336 0 0
4:54 am 04:54 Cloudy with Mist and Fog 48 8.9 45 7.2 89 89 E 12 19 29.8 1009 3 4.828032 0 0
5:02 am 05:02 Cloudy with Mist and Fog 48 8.9 46 7.8 93 93 E 13 20 29.8 1009 2.5 4.02336 0 0
5:10 am 05:10 Cloudy with Mist and Fog 48 8.9 46 7.8 93 93 E 15 24 29.8 1009 3 4.828032 0 0
5:54 am 05:54 Cloudy with Mist and Fog 48 8.9 46 7.8 93 93 E 12 19 29.77 1008 4 6.437376 0 0
6:54 am 06:54 Cloudy with Mist and Fog 48 8.9 46 7.8 93 93 E 15 24 29.74 1007 5 8.04672 0 0
7:54 am 07:54 Cloudy with Light Rain 48 8.9 46 7.8 93 93 E 16 26 29.74 1007 2.5 4.02336 0.02 0.508
8:06 am 08:06 Cloudy with Light Rain 49 9.4 46 7.8 90 90 E 14 22 29.77 1008 1.5 2.414016 0.001 0.001
8:39 am 08:39 Cloudy with Light Rain 49 9.4 46 7.8 90 90 E 16 26 29.77 1008 3 4.828032 0.03 0.762
8:54 am 08:54 Cloudy with Mist and Fog 49 9.4 46 7.8 90 90 E 15 24 29.74 1007 4 6.437376 0.03 0.762
9:54 am 09:54 Cloudy with Light Rain 49 9.4 46 7.8 90 90 ESE 23 37 29.71 1006 8 12.874752 0.01 0.254
10:54 am 10:54 Cloudy with Rain 49 9.4 46 7.8 90 90 E 14 22 29.65 1004 4 6.437376 0.08 2.032
11:01 am 11:01 Cloudy with Rain 49 9.4 46 7.8 90 90 E 20 31 29.65 1004 4 6.437376 0.02 0.508
11:14 am 11:14 Cloudy with Rain 49 9.4 46 7.8 90 90 E 23 37 29.62 1003 4 6.437376 0.05 1.27
11:54 am 11:54 Cloudy 49 9.4 45 7.2 86 86 E 22 35 29.59 1002 10 16.09344 0.06 1.524
12:34 pm 12:34 Cloudy with Light Rain 49 9.4 45 7.2 86 86 E 25 41 29.56 1001 9 14.484096 0.001 0.001
12:54 pm 12:54 Cloudy with Light Rain 50 10 46 7.8 86 86 E 30 48 29.53 1000 10 16.09344 0.001 0.001
1:05 pm 13:05 Cloudy 50 10 46 7.8 86 86 E 28 44 29.56 1001 10 16.09344 0.001 0.001
1:54 pm 13:54 Cloudy 49 9.4 45 7.2 86 86 E 24 39 29.53 1000 10 16.09344 0.001 0.001
2:54 pm 14:54 Cloudy 50 10 46 7.8 86 86 E 18 30 29.47 998 10 16.09344 0 0
3:18 pm 15:18 Cloudy 50 10 46 7.8 86 86 E 20 31 29.5 999 10 16.09344 0 0
3:54 pm 15:54 Cloudy with Light Rain 50 10 46 7.8 86 86 E 21 33 29.44 997 6 9.656064 0.001 0.001
4:32 pm 16:32 Cloudy with Light Rain 50 10 47 8.3 89 89 E 18 30 29.44 997 2.5 4.02336 0.01 0.254
4:54 pm 16:54 Cloudy with Heavy Rain 50 10 47 8.3 89 89 E 17 28 29.38 995 1 1.609344 0.06 1.524
5:07 pm 17:07 Cloudy with Light Rain 50 10 48 8.9 93 93 ESE 12 19 29.44 997 3 4.828032 0.04 1.016
5:46 pm 17:46 Cloudy with Rain 51 10.6 49 9.4 92 92 ESE 15 24 29.41 996 2.5 4.02336 0.09 2.286
5:54 pm 17:54 Cloudy with Light Rain 51 10.6 49 9.4 92 92 SSE 12 19 29.38 995 5 8.04672 0.1 2.54
6:06 pm 18:06 Cloudy with Light Rain 51 10.6 49 9.4 92 92 S 7 11 29.44 997 2.5 4.02336 0.03 0.762
6:30 pm 18:30 Cloudy 52 11.1 50 10 93 93 ESE 8 13 29.38 995 7 11.265408 0.05 1.27
6:50 pm 18:50 Cloudy 52 11 50 10 94 94 E 9 15 29.35 994 10 16.09344 0.05 1.27
6:54 pm 18:54 Mostly Cloudy 52 11.1 50 10 93 93 E 9 15 29.35 994 10 16.09344 0.05 1.27
7:50 pm 19:50 Cloudy 54 12 52 11 94 94 ESE 7 11 29.38 995 10 16.09344 0 0
7:54 pm 19:54 Cloudy 53 11.7 51 10.6 93 93 SE 6 9 29.35 994 10 16.09344 0 0
8:54 pm 20:54 Mostly Cloudy 53 11.7 49 9.4 86 86 ESE 7 11 29.29 992 10 16.09344 0.03 0.762
9:54 pm 21:54 Mostly Cloudy 53 11.7 50 10 89 89 ESE 7 11 29.32 993 10 16.09344 0 0
10:54 pm 22:54 Cloudy with Rain 53 11.7 50 10 89 89 ESE 7 11 29.35 994 7 11.265408 0.001 0.001
11:54 pm 23:54 Mostly Cloudy 53 11.7 50 10 89 89 ESE 7 11 29.32 993 10 16.09344 0.01 0.254

Powered by AerisWeather